Location: Ernsee
(50.8780°N, 12.0389°E)
Time: 22:24:56
(UTC+00:00)

Cosmos 1437 - Pass Details

Date: 20 January 2020
Orbit: 377 x 382 km, 81.2° (Epoch: 17 February)

Event Time Altitude Azimuth Distance (km) Brightness Sun altitude
Exits shadow 06:11:56 - 346° (NNW) 2,269 6.1 -8.2°
Rises 06:11:57 0° 346° (NNW) 2,263 6.1 -8.2°
Reaches altitude 10° 06:13:57 10° 346° (NNW) 1,404 5.1 -7.9°
Maximum altitude 06:17:00 82° 259° (WSW) 388 2.5 -7.4°
Drops below altitude 10° 06:20:00 10° 172° (S) 1,389 5.9 -7.0°
Sets 06:21:59 0° 171° (S) 2,235 6.9 -6.7°
